Hourly Data Report for March 08, 2020

All times are specified in Local Standard Time (LST). Add 1 hour to adjust for Daylight Saving Time where and when it is observed.

OTTAWA INTL A
ONTARIO
Current Station Operator: NAVCAN

45°19'00.000" N
75°40'00.000" W
114.90 m
6106001
71628
YOW

Download Data

Hourly Data (March 2020)
Hourly Data Report for March 8, 2020
TIME Temp Definition
°C
Dew Point Definition
°C
Rel Hum Definition
%
Wind Dir Definition
10's deg

Wind Spd Definition
km/h
Visibility Definition
km
Stn Press Definition
kPa
Hmdx Definition


Wind Chill Definition


Weather Definition


00:00 -1.2 -10.4 50 22 14 24.1 101.16   -6 LegendNANA
01:00 -1.1 -10.5 49 22 13 24.1 101.19   -5 Cloudy
02:00 -0.9 -9.7 51 23 18 24.1 101.16   -6 LegendNANA
03:00 -0.5 -9.1 52 23 18 24.1 101.13   -6 LegendNANA
04:00 -0.6 -7.7 59 23 16 24.1 101.13   -5 Cloudy
05:00 -0.9 -6.9 64 21 10 24.1 101.13   -4 LegendNANA
06:00 -1.1 -7.1 64 22 9 24.1 101.18   -4 LegendNANA
07:00 -1.8 -6.4 71 19 8 24.1 101.27   -5 Mostly Cloudy
08:00 -0.9 -4.5 76 22 10 24.1 101.30   -4 LegendNANA
09:00 0.4 -3.9 73 21 12 24.1 101.30     LegendNANA
10:00 2.0 -4.2 64 21 14 24.1 101.27     Mostly Cloudy
11:00 3.0 -5.3 55 21 13 24.1 101.24     LegendNANA
12:00 3.6 -5.4 52 22 10 24.1 101.17     LegendNANA
13:00 4.7 -4.5 51 18 10 24.1 101.06     Mostly Cloudy
14:00 5.3 -4.1 51 18 15 24.1 100.99     LegendNANA
15:00 5.5 -4.0 50 20 13 24.1 100.92     LegendNANA
16:00 6.0 -3.5 51 16 10 24.1 100.82     Mostly Cloudy
17:00 6.2 -2.4 54 16 14 24.1 100.75     LegendNANA
18:00 5.3 -2.5 57 17 12 24.1 100.70     LegendNANA
19:00 4.5 -2.5 61 16 8 24.1 100.68     Mostly Cloudy
20:00 4.9 -2.4 59 19 19 24.1 100.65     LegendNANA
21:00 4.6 -2.5 60 22 11 24.1 100.62     LegendNANA
22:00 4.3 -2.3 62 21 10 24.1 100.58     Mostly Cloudy
23:00 4.3 -2.5 61 20 14 24.1 100.52     LegendNANA

Notes on Data Quality.

Legend

  • E = Estimated
  • M = Missing
  • NA = Not Available*
  • [empty] = Indicates an unobserved value
Date modified: